Powrót do katalogu

COSMOS 1562

AktywnyMilitariaLEO
NORAD 15001·PAYLOAD·🇷🇺 Russia

Wystrzelony May 28, 1984 z Plesetsk Cosmodrome

Loading…

Następne Przeloty (najbliższe 24 godziny)

TLE

ŚwieżeSource: Space-Track

Epoka: Sep 14, 2026, 19:31 UTC

1 15001U 84052D   26257.81335921 -.00000006  00000-0  65990-4 0  9990
2 15001  74.0128 196.9718 0015323 345.5279  41.5839 12.49966711929984

Śledź COSMOS 1562 w czasie rzeczywistym z AllMySat

Download on the App Store